Regional Weather Roundup
Issued by NWS

Home | Current Version | Previous Version | Text Only | Print | Product List | Glossary On
Versions: 1 2 3 4 5 6 7 8 9 10 11 12 13 14 15 16 17 18 19 20 21 22 23 24 25 26 27 28 29 30 31 32 33 34 35 36 37 38 39 40 41 42 43 44 45 46 47 48 49 50
000
ASUS43 KMKX 221120
RWRWI

WISCONSIN REGIONAL WEATHER ROUNDUP
NATIONAL WEATHER SERVICE MILWAUKEE/SULLIVAN WI
600 AM CDT FRI MAY 22 2015

NOTE: "FAIR" INDICATES FEW OR NO CLOUDS BELOW 12,000 FEET WITH NO
SIGNIFICANT WEATHER AND/OR OBSTRUCTIONS TO VISIBILITY.

WIZ001-002-006>008-014>016-023>028-221200-
NORTHWEST WISCONSIN

CITY           SKY/WX    TMP DP  RH WIND       PRES   REMARKS
SUPERIOR ARPT  CLEAR     33  32  96 CALM      30.18R
ASHLAND        CLEAR     34  32  92 W3        30.18R
HAYWARD        CLEAR     32  28  85 CALM      30.18R
SIREN          FAIR      34  31  90 CALM      30.17R
CUMBERLAND     CLEAR     37  34  87 CALM      30.16S
RICE LAKE      CLEAR     37  36  93 NW3       30.18R
CHETEK         CLEAR     37  36  96 N3        30.17R
LADYSMITH      CLEAR     38  36  92 CALM      30.18R
EAU CLAIRE     NOT AVBL
MENOMONIE      CLEAR     43  37  78 CALM      30.16R
NEW RICHMOND   CLEAR     38  35  86 CALM      30.16S
OSCEOLA        CLEAR     36  36 100 CALM      30.20R
$$

WIZ003>005-009-010-017-018-221200-
NORTH CENTRAL WISCONSIN

CITY           SKY/WX    TMP DP  RH WIND       PRES   REMARKS
MANITOWISH WTR CLEAR     30  30 100 CALM      30.16R
ARBOR VITAE    CLEAR     33  30  90 CALM      30.16R
WOODRUFF       CLEAR     33  30  90 CALM      30.16R
RHINELANDER    CLEAR     32  29  88 CALM      30.17R
EAGLE RIVER    CLEAR     29  29  99 CALM      30.16R
LAND O LAKES   CLEAR     28  27  99 CALM      30.17R
PHILLIPS       FAIR      32  31  97 CALM      30.16R
TOMAHAWK       CLEAR     28  27  96 CALM      30.17R
MEDFORD        CLEAR     34  32  93 CALM      30.16R
MERRILL        CLEAR     30  30  99 CALM      30.18R
$$

WIZ029-030-035-036-043>047-221200-
CENTRAL WISCONSIN

CITY           SKY/WX    TMP DP  RH WIND       PRES   REMARKS
WAUSAU         CLEAR     36  35  96 E3        30.17R
MOSINEE        CLEAR     37  36  93 E5        30.18R WCI  34
MARSHFIELD     CLEAR     42  35  76 E3        30.17R
STEVENS POINT  CLEAR     32  30  94 CALM      30.18R
WAUPACA        CLEAR     37  34  90 CALM      30.18R
WAUTOMA        NOT AVBL
WISC RAPIDS    CLEAR     39  34  82 CALM      30.19R
CAMP DOUGLAS   CLEAR     34  34 100 NE1       30.16R FOG
$$

WIZ011>013-019>022-031-037>040-048>050-221200-
NORTHEAST WISCONSIN

CITY           SKY/WX    TMP DP  RH WIND       PRES   REMARKS
ANTIGO         CLEAR     32  30  91 N3        30.17R
SHAWANO        CLEAR     37  35  91 CALM      30.18R
OCONTO         CLEAR     30  30 100 CALM      30.17R
STURGEON BAY   CLEAR     39  27  60 NW3       30.19R
GREEN BAY      CLEAR     38  35  89 W3        30.18R
MANITOWOC      NOT AVBL
APPLETON       CLEAR     37  28  70 N6        30.17R WCI  33
CLINTONVILLE   CLEAR     34  32  93 CALM      30.18R
OSHKOSH        CLEAR     41  31  67 CALM      30.17R
$$

WIZ032>034-041-042-053>061-221200-
SOUTHWEST WISCONSIN

CITY           SKY/WX    TMP DP  RH WIND       PRES   REMARKS
LA CROSSE      CLEAR     45  41  86 CALM      30.15R
SPARTA         CLEAR     32  32  99 CALM      30.15R
VIROQUA        CLEAR     48  33  57 E6        30.14R
BOSCOBEL       FOG       37  36  96 CALM      30.16R VSB 1/4
PRAIRIE DU CHI CLEAR     41  38  88 CALM      30.14R
PLATTEVILLE    CLEAR     46  39  76 NE3       30.14R
$$

WIZ056-057-062-063-064-067-068-221200-
SOUTH CENTRAL WISCONSIN

CITY           SKY/WX    TMP DP  RH WIND       PRES   REMARKS
REEDSBURG      CLEAR     39  38  97 CALM      30.16R
BARABOO/DELLS  CLEAR     40  36  83 CALM      30.16R
LONE ROCK      NOT AVBL
MINERAL POINT  CLEAR     48  37  66 CALM      30.14R
MADISON        CLEAR     42  35  76 N6        30.16R
MIDDLETON      CLEAR     40  35  81 CALM      30.16R
WATERTOWN      CLEAR     38  33  81 CALM      30.15R
MONROE         CLEAR     46  34  61 NE6       30.13R
JANESVILLE     CLEAR     43  34  70 CALM      30.14R
$$

WIZ051-052-058>065-066-070>072-221200-
SOUTHEAST WISCONSIN

CITY           SKY/WX    TMP DP  RH WIND       PRES   REMARKS
MILWAUKEE      CLEAR     44  32  62 NE7       30.17R
WAUKESHA       CLEAR     41  30  65 CALM      30.17R
MILWAUKEE/TIMM CLEAR     39  30  70 CALM      30.16R
RACINE         CLEAR     44  36  73 N7        30.17R
BURLINGTON     CLEAR     37  34  87 CALM      30.14R
KENOSHA        CLEAR     43  35  73 N3        30.15R
FOND DU LAC    CLEAR     37  31  78 S3        30.17R
SHEBOYGAN      CLEAR     38  32  79 NW3       30.17R
WEST BEND      CLEAR     36  34  93 CALM      30.16R
JUNEAU         CLEAR     42  30  62 N5        30.17R
$$

LSZ147-162-221200-
LAKE SUPERIOR

STATION/POSITION TIME  TEMP    WIND        PRES    WAVE
                       AIR SEA DIR/SP/G            HT/PER
                 (UTC) (F)     (DEG/KT/KT) (MB)    (FT/S)
W MID LAKE BUOY  0950   38 36   50/  8/ 10   N/A     0
DEVILS ISLAND    1000   39      40/  5/  6   N/A
PORT WING        1040   35     140/  3/  5   N/A
SAXON HARBOR     1040   35     200/  3/  4   N/A
$$

LMZ867-665-643>646-221200-
LAKE MICHIGAN

STATION/POSITION TIME  TEMP    WIND        PRES    WAVE
                       AIR SEA DIR/SP/G            HT/PER
                 (UTC) (F)     (DEG/KT/KT) (MB)    (FT/S)
CHAMBERS ISLAND  1000   42     300/  5/  7   N/A
N MID LAKE BUOY  0950   38 36  300/  6/  8   N/A     1/ 3
NORTHPORT PIER   1000   45     330/  8/ 10   N/A
SISTER BAY       1032   43      20/  6/  8   N/A
KEWAUNEE LAKESHO 1000          300/  3/  5   N/A
SHEBOYGAN LAKESH 1000          330/  6/  7   N/A
PORT WASHINGTON  1000   47     320/  2/  5   N/A
ATWATER BUOY     1000   46 44  360/  8/ 10   N/A
MILWAUKEE LAKESH 1000   48      10/  6/  8   N/A
S MID LAKE BUOY  0950   41 38   30/  8/  8   N/A
KENOSHA   LAKESH 1000   49      10/  8/  8   N/A
$$

TC  - TEMPERATURE IN CELSIUS
VSB - VISIBILITY IN STATUTE MILES
WCI - WIND CHILL INDEX
HX  - HEAT INDEX



USA.gov is the U.S. government's official web portal to all federal, state and local government web resources and services.